Location: La Trinit�
(48.1620°N, 3.4512°W)
Time: 16:25:27
(UTC+00:00)

Meteor 1-20 Rocket - Pass Details

Date: 08 May 2021
Orbit: 818 x 893 km, 81.2° (Epoch: 21 June)

Event Time Altitude Azimuth Distance (km) Brightness Sun altitude
Rises 20:33:24 0° 350° (N) 3,452 8.2 -8.7°
Reaches altitude 10° 20:35:53 10° 352° (N) 2,499 7.4 -9.0°
Maximum altitude 20:41:32 69° 76° (ENE) 903 4.2 -9.7°
Drops below altitude 10° 20:47:02 10° 160° (SSE) 2,434 6.1 -10.4°
Enters shadow 20:47:13 - 160° (SSE) 2,503 6.1 -10.4°
